Time,TemperatureF,DewpointF,PressureIn,WindDirection,WindDirectionDegrees,WindSpeedMPH,WindSpeedGustMPH,Humidity,HourlyPrecipIn,Conditions,Clouds,dailyrainin,SolarRadiationWatts/m^2,SoftwareType,DateUTC
2013-03-04 00:00:00,28.6,15.7,29.79,NNW,344,0.0,0.0,58,0.00,,---,0.00,0.00,VWS V14.01,2013-03-04 05:00:00,
2013-03-04 00:05:00,28.6,15.7,29.79,NE,51,0.0,0.0,58,0.00,,---,0.00,0.00,VWS V14.01,2013-03-04 05:05:00,
2013-03-04 00:10:00,28.6,15.3,29.79,NW,321,0.0,0.0,57,0.00,,---,0.00,0.00,VWS V14.01,2013-03-04 05:10:00,
2013-03-04 00:15:00,28.5,15.2,29.79,North,360,0.0,0.0,57,0.00,,---,0.00,0.00,VWS V14.01,2013-03-04 05:15:00,
2013-03-04 00:20:00,28.4,14.7,29.80,WNW,287,0.0,0.0,56,0.00,,---,0.00,0.00,VWS V14.01,2013-03-04 05:20:00,
2013-03-04 00:25:00,28.4,14.7,29.80,West,276,0.0,0.0,56,0.00,,---,0.00,0.00,VWS V14.01,2013-03-04 05:25:00,
2013-03-04 00:30:00,28.3,14.6,29.80,West,267,0.0,0.0,56,0.00,,---,0.00,0.00,VWS V14.01,2013-03-04 05:30:00,
2013-03-04 00:35:00,28.2,14.5,29.80,WNW,301,0.0,0.0,56,0.00,,---,0.00,0.00,VWS V14.01,2013-03-04 05:35:00,
2013-03-04 00:40:00,28.3,14.6,29.80,WNW,294,0.0,0.0,56,0.00,,---,0.00,0.00,VWS V14.01,2013-03-04 05:40:00,
2013-03-04 00:45:00,28.1,14.4,29.80,WNW,299,0.0,0.0,56,0.00,,---,0.00,0.00,VWS V14.01,2013-03-04 05:45:00,
2013-03-04 00:50:00,28.1,14.4,29.80,NNW,333,0.0,0.0,56,0.00,,---,0.00,0.00,VWS V14.01,2013-03-04 05:50:00,
2013-03-04 00:55:00,28.0,14.3,29.80,NNW,348,0.0,0.0,56,0.00,,---,0.00,0.00,VWS V14.01,2013-03-04 05:55:00,
2013-03-04 01:00:00,27.9,14.6,29.80,NW,323,0.0,0.0,57,0.00,,---,0.00,0.00,VWS V14.01,2013-03-04 06:00:00,
2013-03-04 01:05:00,27.9,14.2,29.80,WNW,296,0.0,0.0,56,0.00,,---,0.00,0.00,VWS V14.01,2013-03-04 06:05:00,
2013-03-04 01:10:00,27.8,14.6,29.80,North,355,0.0,0.0,57,0.00,,---,0.00,0.00,VWS V14.01,2013-03-04 06:10:00,
2013-03-04 01:15:00,27.7,14.5,29.80,NNE,27,0.0,0.0,57,0.00,,---,0.00,0.00,VWS V14.01,2013-03-04 06:15:00,
2013-03-04 01:20:00,27.7,14.9,29.80,WNW,296,0.0,0.0,58,0.00,,---,0.00,0.00,VWS V14.01,2013-03-04 06:20:00,
2013-03-04 01:25:00,27.7,14.5,29.80,WNW,284,0.0,0.0,57,0.00,,---,0.00,0.00,VWS V14.01,2013-03-04 06:25:00,
2013-03-04 01:30:00,27.6,14.8,29.80,West,264,0.0,0.0,58,0.00,,---,0.00,0.00,VWS V14.01,2013-03-04 06:30:00,
2013-03-04 01:35:00,27.5,14.7,29.79,NNW,347,0.0,0.0,58,0.00,,---,0.00,0.00,VWS V14.01,2013-03-04 06:35:00,
2013-03-04 01:40:00,27.5,14.7,29.79,WNW,284,0.0,0.0,58,0.00,,---,0.00,0.00,VWS V14.01,2013-03-04 06:40:00,
2013-03-04 01:45:00,27.6,14.8,29.79,NNW,334,0.0,0.0,58,0.00,,---,0.00,0.00,VWS V14.01,2013-03-04 06:45:00,
2013-03-04 01:50:00,27.6,14.8,29.80,West,277,0.0,0.0,58,0.00,,---,0.00,0.00,VWS V14.01,2013-03-04 06:50:00,
2013-03-04 01:55:00,27.6,14.8,29.79,NNW,329,0.0,0.0,58,0.00,,---,0.00,0.00,VWS V14.01,2013-03-04 06:55:00,
2013-03-04 02:00:00,27.6,14.8,29.79,SW,216,0.0,0.0,58,0.00,,---,0.00,0.00,VWS V14.01,2013-03-04 07:00:00,
2013-03-04 02:05:00,27.6,14.8,29.80,WNW,293,0.0,0.0,58,0.00,,---,0.00,0.00,VWS V14.01,2013-03-04 07:05:00,
2013-03-04 02:10:00,27.6,14.8,29.80,NW,309,0.0,0.0,58,0.00,,---,0.00,0.00,VWS V14.01,2013-03-04 07:10:00,
2013-03-04 02:15:00,27.7,14.9,29.80,West,273,0.0,0.0,58,0.00,,---,0.00,0.00,VWS V14.01,2013-03-04 07:15:00,
2013-03-04 02:20:00,27.5,15.1,29.79,NW,325,0.0,0.0,59,0.00,,---,0.00,0.00,VWS V14.01,2013-03-04 07:20:00,
2013-03-04 02:25:00,27.4,15.0,29.79,NNW,331,0.0,0.0,59,0.00,,---,0.00,0.00,VWS V14.01,2013-03-04 07:25:00,
2013-03-04 02:30:00,27.5,15.1,29.79,NNW,329,0.0,0.0,59,0.00,,---,0.00,0.00,VWS V14.01,2013-03-04 07:30:00,
2013-03-04 02:35:00,27.3,14.9,29.79,WNW,296,0.0,0.0,59,0.00,,---,0.00,0.00,VWS V14.01,2013-03-04 07:35:00,
2013-03-04 02:40:00,27.3,14.9,29.79,WNW,296,0.0,0.0,59,0.00,,---,0.00,0.00,VWS V14.01,2013-03-04 07:40:00,
2013-03-04 02:45:00,27.2,15.2,29.80,NNE,15,0.0,0.0,60,0.00,,---,0.00,0.00,VWS V14.01,2013-03-04 07:45:00,
2013-03-04 02:50:00,27.2,15.2,29.80,NNW,344,0.0,0.0,60,0.00,,---,0.00,0.00,VWS V14.01,2013-03-04 07:50:00,
2013-03-04 02:55:00,27.3,15.3,29.80,NW,305,0.0,0.0,60,0.00,,---,0.00,0.00,VWS V14.01,2013-03-04 07:55:00,
2013-03-04 03:00:00,27.1,15.4,29.79,NNW,343,0.0,0.0,61,0.00,,---,0.00,0.00,VWS V14.01,2013-03-04 08:00:00,
2013-03-04 03:05:00,27.1,15.4,29.79,NW,311,0.0,0.0,61,0.00,,---,0.00,0.00,VWS V14.01,2013-03-04 08:05:00,
2013-03-04 03:10:00,27.2,15.6,29.79,WSW,249,0.0,0.0,61,0.00,,---,0.00,0.00,VWS V14.01,2013-03-04 08:10:00,
2013-03-04 03:15:00,27.2,15.6,29.79,NW,322,0.0,0.0,61,0.00,,---,0.00,0.00,VWS V14.01,2013-03-04 08:15:00,
2013-03-04 03:20:00,27.4,15.7,29.80,WNW,303,0.0,0.0,61,0.00,,---,0.00,0.00,VWS V14.01,2013-03-04 08:20:00,
2013-03-04 03:25:00,27.4,16.1,29.80,West,275,0.0,0.0,62,0.00,,---,0.00,0.00,VWS V14.01,2013-03-04 08:25:00,
2013-03-04 03:30:00,27.2,15.9,29.80,WNW,292,0.0,0.0,62,0.00,,---,0.00,0.00,VWS V14.01,2013-03-04 08:30:00,
2013-03-04 03:35:00,27.5,16.2,29.80,West,278,0.0,0.0,62,0.00,,---,0.00,0.00,VWS V14.01,2013-03-04 08:35:00,
2013-03-04 03:40:00,27.3,16.4,29.80,NNW,338,0.0,0.0,63,0.00,,---,0.00,0.00,VWS V14.01,2013-03-04 08:40:00,
2013-03-04 03:45:00,27.4,16.5,29.80,North,5,0.0,0.0,63,0.00,,---,0.00,0.00,VWS V14.01,2013-03-04 08:45:00,
2013-03-04 03:50:00,27.6,16.7,29.80,West,267,0.0,0.0,63,0.00,,---,0.00,0.00,VWS V14.01,2013-03-04 08:50:00,
2013-03-04 03:55:00,27.5,16.6,29.80,WNW,294,0.0,0.0,63,0.00,,---,0.00,0.00,VWS V14.01,2013-03-04 08:55:00,
2013-03-04 04:00:00,27.5,16.6,29.80,NW,321,0.0,0.0,63,0.00,,---,0.00,0.00,VWS V14.01,2013-03-04 09:00:00,
2013-03-04 04:05:00,27.6,16.7,29.80,WNW,286,0.0,0.0,63,0.00,,---,0.00,0.00,VWS V14.01,2013-03-04 09:05:00,
2013-03-04 04:10:00,27.7,16.8,29.80,WNW,303,0.0,0.0,63,0.00,,---,0.00,0.00,VWS V14.01,2013-03-04 09:10:00,
2013-03-04 04:15:00,27.9,17.0,29.80,NW,325,0.0,0.0,63,0.00,,---,0.00,0.00,VWS V14.01,2013-03-04 09:15:00,
2013-03-04 04:20:00,27.7,16.8,29.80,West,275,0.0,0.0,63,0.00,,---,0.00,0.00,VWS V14.01,2013-03-04 09:20:00,
2013-03-04 04:25:00,27.7,16.8,29.81,WNW,286,0.0,0.0,63,0.00,,---,0.00,0.00,VWS V14.01,2013-03-04 09:25:00,
2013-03-04 04:30:00,27.7,16.8,29.81,NNW,329,0.0,0.0,63,0.00,,---,0.00,0.00,VWS V14.01,2013-03-04 09:30:00,
2013-03-04 04:35:00,27.6,17.0,29.81,WNW,284,0.0,0.0,64,0.00,,---,0.00,0.00,VWS V14.01,2013-03-04 09:35:00,
2013-03-04 04:40:00,27.6,17.0,29.80,WNW,286,0.0,0.0,64,0.00,,---,0.00,0.00,VWS V14.01,2013-03-04 09:40:00,
2013-03-04 04:45:00,27.7,16.8,29.81,NW,315,0.0,0.0,63,0.00,,---,0.00,0.00,VWS V14.01,2013-03-04 09:45:00,
2013-03-04 04:50:00,27.6,17.0,29.81,NNW,340,0.0,0.0,64,0.00,,---,0.00,0.00,VWS V14.01,2013-03-04 09:50:00,
2013-03-04 04:55:00,27.6,17.0,29.81,NNW,329,0.0,0.0,64,0.00,,---,0.00,0.00,VWS V14.01,2013-03-04 09:55:00,
2013-03-04 05:00:00,27.6,17.0,29.81,NW,323,0.0,0.0,64,0.00,,---,0.00,0.00,VWS V14.01,2013-03-04 10:00:00,
2013-03-04 05:05:00,27.8,17.2,29.81,North,360,0.0,0.0,64,0.00,,---,0.00,0.00,VWS V14.01,2013-03-04 10:05:00,
2013-03-04 05:10:00,27.6,17.0,29.81,NNW,340,0.0,0.0,64,0.00,,---,0.00,0.00,VWS V14.01,2013-03-04 10:10:00,
2013-03-04 05:15:00,27.6,17.0,29.81,NNW,332,0.0,0.0,64,0.00,,---,0.00,0.00,VWS V14.01,2013-03-04 10:15:00,
2013-03-04 05:20:00,27.7,17.1,29.81,NW,319,0.0,0.0,64,0.00,,---,0.00,0.00,VWS V14.01,2013-03-04 10:20:00,
2013-03-04 05:25:00,27.9,17.3,29.81,WSW,252,0.0,0.0,64,0.00,,---,0.00,0.00,VWS V14.01,2013-03-04 10:25:00,
2013-03-04 05:30:00,27.8,17.2,29.81,NNW,345,0.0,0.0,64,0.00,,---,0.00,0.00,VWS V14.01,2013-03-04 10:30:00,
2013-03-04 05:35:00,27.8,17.6,29.81,NW,313,0.0,0.0,65,0.00,,---,0.00,0.00,VWS V14.01,2013-03-04 10:35:00,
2013-03-04 05:40:00,27.9,17.3,29.81,NW,315,0.0,0.0,64,0.00,,---,0.00,0.00,VWS V14.01,2013-03-04 10:40:00,
2013-03-04 05:45:00,27.8,17.6,29.81,North,360,0.0,0.0,65,0.00,,---,0.00,0.00,VWS V14.01,2013-03-04 10:45:00,
2013-03-04 05:50:00,27.6,17.4,29.81,North,9,0.0,0.0,65,0.00,,---,0.00,0.00,VWS V14.01,2013-03-04 10:50:00,
2013-03-04 05:55:00,27.7,17.5,29.81,NW,309,0.0,0.0,65,0.00,,---,0.00,0.00,VWS V14.01,2013-03-04 10:55:00,
2013-03-04 06:00:00,27.9,17.7,29.81,NNW,334,0.0,0.0,65,0.00,,---,0.00,0.00,VWS V14.01,2013-03-04 11:00:00,
2013-03-04 06:05:00,27.8,17.6,29.81,NNW,331,0.0,0.0,65,0.00,,---,0.00,0.00,VWS V14.01,2013-03-04 11:05:00,
2013-03-04 06:10:00,27.8,17.6,29.82,NNW,334,0.0,0.0,65,0.00,,---,0.00,0.00,VWS V14.01,2013-03-04 11:10:00,
2013-03-04 06:15:00,27.9,17.7,29.82,North,355,0.0,0.0,65,0.00,,---,0.00,0.00,VWS V14.01,2013-03-04 11:15:00,
2013-03-04 06:20:00,28.0,17.8,29.82,NW,310,0.0,0.0,65,0.00,,---,0.00,0.00,VWS V14.01,2013-03-04 11:20:00,
2013-03-04 06:25:00,28.1,17.9,29.82,NE,37,0.0,0.0,65,0.00,,---,0.00,0.00,VWS V14.01,2013-03-04 11:25:00,
2013-03-04 06:30:00,28.1,17.9,29.82,NW,325,0.0,0.0,65,0.00,,---,0.00,0.00,VWS V14.01,2013-03-04 11:30:00,
2013-03-04 06:35:00,28.2,18.0,29.82,NW,321,0.0,0.0,65,0.00,,---,0.00,5.00,VWS V14.01,2013-03-04 11:35:00,
2013-03-04 06:40:00,28.2,18.0,29.82,WNW,292,0.0,0.0,65,0.00,,---,0.00,5.00,VWS V14.01,2013-03-04 11:40:00,
2013-03-04 06:45:00,28.4,18.1,29.83,WNW,298,0.0,0.0,65,0.00,,---,0.00,7.00,VWS V14.01,2013-03-04 11:45:00,
2013-03-04 06:50:00,28.5,17.9,29.83,WNW,300,0.0,0.0,64,0.00,,---,0.00,9.00,VWS V14.01,2013-03-04 11:50:00,
2013-03-04 06:55:00,28.6,18.0,29.83,West,275,0.0,0.0,64,0.00,,---,0.00,21.00,VWS V14.01,2013-03-04 11:55:00,
2013-03-04 07:00:00,28.7,18.1,29.83,NW,321,0.0,0.0,64,0.00,,---,0.00,21.00,VWS V14.01,2013-03-04 12:00:00,
2013-03-04 07:05:00,28.7,18.1,29.83,WNW,297,0.0,0.0,64,0.00,,---,0.00,28.00,VWS V14.01,2013-03-04 12:05:00,
2013-03-04 07:10:00,28.8,18.2,29.83,NW,324,0.0,0.0,64,0.00,,---,0.00,32.00,VWS V14.01,2013-03-04 12:10:00,
2013-03-04 07:15:00,29.0,18.4,29.83,NNW,338,0.0,0.0,64,0.00,,---,0.00,39.00,VWS V14.01,2013-03-04 12:15:00,
2013-03-04 07:20:00,29.0,18.4,29.83,WNW,294,0.0,0.0,64,0.00,,---,0.00,47.00,VWS V14.01,2013-03-04 12:20:00,
2013-03-04 07:25:00,29.1,18.5,29.83,WNW,283,0.0,0.0,64,0.00,,---,0.00,62.00,VWS V14.01,2013-03-04 12:25:00,
2013-03-04 07:30:00,29.2,18.5,29.83,NNW,340,0.0,0.0,64,0.00,,---,0.00,63.00,VWS V14.01,2013-03-04 12:30:00,
2013-03-04 07:35:00,29.3,18.6,29.83,NW,323,0.0,0.0,64,0.00,,---,0.00,74.00,VWS V14.01,2013-03-04 12:35:00,
2013-03-04 07:40:00,29.4,18.4,29.84,NNE,29,0.0,0.0,63,0.00,,---,0.00,81.00,VWS V14.01,2013-03-04 12:40:00,
2013-03-04 07:45:00,29.6,18.6,29.83,West,270,0.0,0.0,63,0.00,,---,0.00,95.00,VWS V14.01,2013-03-04 12:45:00,
2013-03-04 07:50:00,29.9,18.9,29.83,NNW,347,0.0,0.0,63,0.00,,---,0.00,116.00,VWS V14.01,2013-03-04 12:50:00,
2013-03-04 07:55:00,30.1,18.7,29.83,NNW,347,0.0,0.0,62,0.00,,---,0.00,174.00,VWS V14.01,2013-03-04 12:55:00,
2013-03-04 08:00:00,30.4,18.6,29.83,NW,312,0.0,0.0,61,0.00,,---,0.00,239.00,VWS V14.01,2013-03-04 13:00:00,
2013-03-04 08:05:00,30.9,18.7,29.83,WNW,301,0.0,0.0,60,0.00,,---,0.00,292.00,VWS V14.01,2013-03-04 13:05:00,
2013-03-04 08:10:00,31.3,19.0,29.83,NNW,340,0.0,0.0,60,0.00,,---,0.00,311.00,VWS V14.01,2013-03-04 13:10:00,
2013-03-04 08:15:00,31.7,18.6,29.83,NNW,327,0.0,0.0,58,0.00,,---,0.00,341.00,VWS V14.01,2013-03-04 13:15:00,
2013-03-04 08:20:00,31.9,18.8,29.83,NNW,334,0.0,0.0,58,0.00,,---,0.00,362.00,VWS V14.01,2013-03-04 13:20:00,
2013-03-04 08:25:00,32.1,19.0,29.83,West,275,0.0,0.0,58,0.00,,---,0.00,380.00,VWS V14.01,2013-03-04 13:25:00,
2013-03-04 08:30:00,32.5,19.0,29.83,NNW,334,0.0,0.0,57,0.00,,---,0.00,422.00,VWS V14.01,2013-03-04 13:30:00,
2013-03-04 08:35:00,33.0,19.4,29.83,North,355,0.0,0.0,57,0.00,,---,0.00,478.00,VWS V14.01,2013-03-04 13:35:00,
2013-03-04 08:40:00,33.3,19.3,29.83,WSW,254,0.0,0.0,56,0.00,,---,0.00,570.00,VWS V14.01,2013-03-04 13:40:00,
2013-03-04 08:45:00,33.4,19.4,29.83,West,259,0.0,0.0,56,0.00,,---,0.00,540.00,VWS V14.01,2013-03-04 13:45:00,
2013-03-04 08:50:00,33.9,19.5,29.83,WNW,285,0.0,0.0,55,0.00,,---,0.00,519.00,VWS V14.01,2013-03-04 13:50:00,
2013-03-04 08:55:00,33.6,19.2,29.83,WSW,243,0.0,0.0,55,0.00,,---,0.00,582.00,VWS V14.01,2013-03-04 13:55:00,
2013-03-04 09:00:00,34.2,19.7,29.83,WNW,294,0.0,0.0,55,0.00,,---,0.00,561.00,VWS V14.01,2013-03-04 14:00:00,
2013-03-04 09:05:00,34.5,19.6,29.83,NW,306,0.0,0.0,54,0.00,,---,0.00,548.00,VWS V14.01,2013-03-04 14:05:00,
2013-03-04 09:10:00,33.5,19.1,29.83,WNW,288,0.0,0.0,55,0.00,,---,0.00,406.00,VWS V14.01,2013-03-04 14:10:00,
2013-03-04 09:15:00,34.3,19.8,29.83,West,280,0.0,0.0,55,0.00,,---,0.00,545.00,VWS V14.01,2013-03-04 14:15:00,
2013-03-04 09:20:00,35.1,20.1,29.83,WNW,302,0.0,0.0,54,0.00,,---,0.00,673.00,VWS V14.01,2013-03-04 14:20:00,
2013-03-04 09:25:00,35.4,20.0,29.83,NNW,330,0.0,0.0,53,0.00,,---,0.00,735.00,VWS V14.01,2013-03-04 14:25:00,
2013-03-04 09:30:00,35.4,20.0,29.83,NNW,341,0.0,0.0,53,0.00,,---,0.00,638.00,VWS V14.01,2013-03-04 14:30:00,
2013-03-04 09:35:00,35.0,19.2,29.83,North,355,0.0,0.0,52,0.00,,---,0.00,682.00,VWS V14.01,2013-03-04 14:35:00,
2013-03-04 09:40:00,34.9,19.5,29.83,NNW,345,0.0,0.0,53,0.00,,---,0.00,657.00,VWS V14.01,2013-03-04 14:40:00,
2013-03-04 09:45:00,35.8,19.5,29.84,NW,311,0.0,0.0,51,0.00,,---,0.00,621.00,VWS V14.01,2013-03-04 14:45:00,
2013-03-04 09:50:00,36.4,20.0,29.83,NW,311,0.0,0.0,51,0.00,,---,0.00,592.00,VWS V14.01,2013-03-04 14:50:00,
2013-03-04 09:55:00,36.0,19.2,29.83,NNW,335,0.0,0.0,50,0.00,,---,0.00,606.00,VWS V14.01,2013-03-04 14:55:00,
2013-03-04 10:00:00,35.9,20.5,29.83,West,267,0.0,0.0,53,0.00,,---,0.00,617.00,VWS V14.01,2013-03-04 15:00:00,
2013-03-04 10:05:00,37.2,20.3,29.84,North,355,0.0,0.0,50,0.00,,---,0.00,624.00,VWS V14.01,2013-03-04 15:05:00,
2013-03-04 10:10:00,37.0,20.1,29.83,NNW,342,0.0,0.0,50,0.00,,---,0.00,645.00,VWS V14.01,2013-03-04 15:10:00,
2013-03-04 10:15:00,36.9,19.5,29.83,West,277,0.0,0.0,49,0.00,,---,0.00,647.00,VWS V14.01,2013-03-04 15:15:00,
2013-03-04 10:20:00,37.7,20.8,29.83,NW,311,0.0,0.0,50,0.00,,---,0.00,682.00,VWS V14.01,2013-03-04 15:20:00,
2013-03-04 10:25:00,37.3,19.9,29.83,North,351,0.0,0.0,49,0.00,,---,0.00,652.00,VWS V14.01,2013-03-04 15:25:00,
2013-03-04 10:30:00,37.6,19.2,29.83,WNW,295,0.0,0.0,47,0.00,,---,0.00,659.00,VWS V14.01,2013-03-04 15:30:00,
2013-03-04 10:35:00,38.2,19.8,29.83,WSW,244,0.0,0.0,47,0.00,,---,0.00,668.00,VWS V14.01,2013-03-04 15:35:00,
2013-03-04 10:40:00,38.3,19.4,29.83,NW,324,0.0,0.0,46,0.00,,---,0.00,680.00,VWS V14.01,2013-03-04 15:40:00,
2013-03-04 10:45:00,38.4,19.4,29.83,North,349,0.0,0.0,46,0.00,,---,0.00,687.00,VWS V14.01,2013-03-04 15:45:00,
2013-03-04 10:50:00,38.3,19.4,29.83,WNW,302,0.0,0.0,46,0.00,,---,0.00,691.00,VWS V14.01,2013-03-04 15:50:00,
2013-03-04 10:55:00,38.6,19.6,29.83,WNW,296,0.0,0.0,46,0.00,,---,0.00,707.00,VWS V14.01,2013-03-04 15:55:00,
2013-03-04 11:00:00,38.8,19.8,29.83,WNW,288,0.0,0.0,46,0.00,,---,0.00,724.00,VWS V14.01,2013-03-04 16:00:00,
2013-03-04 11:05:00,39.6,20.0,29.82,NNW,336,0.0,0.0,45,0.00,,---,0.00,714.00,VWS V14.01,2013-03-04 16:05:00,
2013-03-04 11:10:00,39.6,19.0,29.82,NW,318,0.0,0.0,43,0.00,,---,0.00,721.00,VWS V14.01,2013-03-04 16:10:00,
2013-03-04 11:15:00,41.2,19.9,29.82,North,350,0.0,0.0,42,0.00,,---,0.00,728.00,VWS V14.01,2013-03-04 16:15:00,
2013-03-04 11:20:00,40.3,19.6,29.82,WNW,288,0.0,0.0,43,0.00,,---,0.00,731.00,VWS V14.01,2013-03-04 16:20:00,
2013-03-04 11:25:00,40.3,19.6,29.81,NW,319,0.0,0.0,43,0.00,,---,0.00,737.00,VWS V14.01,2013-03-04 16:25:00,
2013-03-04 11:30:00,41.5,20.7,29.82,NW,320,0.0,0.0,43,0.00,,---,0.00,742.00,VWS V14.01,2013-03-04 16:30:00,
2013-03-04 11:35:00,40.9,19.6,29.82,NW,304,0.0,0.0,42,0.00,,---,0.00,747.00,VWS V14.01,2013-03-04 16:35:00,
2013-03-04 11:40:00,40.9,19.6,29.81,NW,319,0.0,0.0,42,0.00,,---,0.00,749.00,VWS V14.01,2013-03-04 16:40:00,
2013-03-04 11:45:00,40.6,19.3,29.81,NNW,331,0.0,0.0,42,0.00,,---,0.00,752.00,VWS V14.01,2013-03-04 16:45:00,
2013-03-04 11:50:00,41.1,19.8,29.81,North,350,0.0,0.0,42,0.00,,---,0.00,754.00,VWS V14.01,2013-03-04 16:50:00,
2013-03-04 11:55:00,41.1,19.8,29.81,WNW,290,0.0,0.0,42,0.00,,---,0.00,751.00,VWS V14.01,2013-03-04 16:55:00,
2013-03-04 12:00:00,41.4,20.6,29.81,WNW,289,0.0,0.0,43,0.00,,---,0.00,754.00,VWS V14.01,2013-03-04 17:00:00,
2013-03-04 12:05:00,41.4,20.0,29.81,WNW,292,0.0,0.0,42,0.00,,---,0.00,756.00,VWS V14.01,2013-03-04 17:05:00,
2013-03-04 12:10:00,42.3,20.9,29.81,NW,319,0.0,0.0,42,0.00,,---,0.00,758.00,VWS V14.01,2013-03-04 17:10:00,
2013-03-04 12:15:00,41.8,19.3,29.81,WNW,287,0.0,0.0,40,0.00,,---,0.00,763.00,VWS V14.01,2013-03-04 17:15:00,
2013-03-04 12:20:00,41.5,20.1,29.81,NW,319,0.0,0.0,42,0.00,,---,0.00,761.00,VWS V14.01,2013-03-04 17:20:00,
2013-03-04 12:25:00,41.8,19.8,29.81,NNW,327,0.0,0.0,41,0.00,,---,0.00,765.00,VWS V14.01,2013-03-04 17:25:00,
2013-03-04 12:30:00,42.9,20.3,29.81,WSW,252,0.0,0.0,40,0.00,,---,0.00,759.00,VWS V14.01,2013-03-04 17:30:00,
2013-03-04 12:35:00,41.8,19.3,29.81,WNW,290,0.0,0.0,40,0.00,,---,0.00,765.00,VWS V14.01,2013-03-04 17:35:00,
2013-03-04 12:40:00,41.9,19.9,29.81,NW,309,0.0,0.0,41,0.00,,---,0.00,749.00,VWS V14.01,2013-03-04 17:40:00,
2013-03-04 12:45:00,42.5,20.5,29.81,NW,325,0.0,0.0,41,0.00,,---,0.00,800.00,VWS V14.01,2013-03-04 17:45:00,
2013-03-04 12:50:00,42.4,19.8,29.81,WNW,284,0.0,0.0,40,0.00,,---,0.00,782.00,VWS V14.01,2013-03-04 17:50:00,
2013-03-04 12:55:00,42.6,20.0,29.81,WNW,282,0.0,0.0,40,0.00,,---,0.00,740.00,VWS V14.01,2013-03-04 17:55:00,
2013-03-04 13:00:00,42.3,19.7,29.80,NNW,340,0.0,0.0,40,0.00,,---,0.00,737.00,VWS V14.01,2013-03-04 18:00:00,
2013-03-04 13:05:00,42.8,20.8,29.80,NW,312,0.0,0.0,41,0.00,,---,0.00,731.00,VWS V14.01,2013-03-04 18:05:00,
2013-03-04 13:10:00,42.7,20.1,29.80,West,266,0.0,0.0,40,0.00,,---,0.00,728.00,VWS V14.01,2013-03-04 18:10:00,
2013-03-04 13:15:00,42.3,19.7,29.79,WNW,296,0.0,0.0,40,0.00,,---,0.00,724.00,VWS V14.01,2013-03-04 18:15:00,
2013-03-04 13:20:00,42.7,19.5,29.79,SSW,196,0.0,0.0,39,0.00,,---,0.00,717.00,VWS V14.01,2013-03-04 18:20:00,
2013-03-04 13:25:00,42.2,19.6,29.79,NNE,22,0.0,0.0,40,0.00,,---,0.00,708.00,VWS V14.01,2013-03-04 18:25:00,
2013-03-04 13:29:00,42.2,19.6,29.79,West,263,0.0,0.0,40,0.00,,---,0.00,705.00,VWS V14.01,2013-03-04 18:29:00,
2013-03-04 13:30:00,42.2,19.6,29.79,West,263,0.0,0.0,40,0.00,,---,0.00,705.00,VWS V14.01,2013-03-04 18:30:00,
2013-03-04 13:35:00,42.4,19.8,29.79,NW,313,0.0,0.0,40,0.00,,---,0.00,698.00,VWS V14.01,2013-03-04 18:35:00,
2013-03-04 13:40:00,42.3,19.7,29.79,SSE,163,0.0,0.0,40,0.00,,---,0.00,689.00,VWS V14.01,2013-03-04 18:40:00,
2013-03-04 13:45:00,42.3,19.7,29.79,North,355,0.0,0.0,40,0.00,,---,0.00,684.00,VWS V14.01,2013-03-04 18:45:00,
2013-03-04 13:50:00,42.9,20.3,29.79,NW,322,0.0,0.0,40,0.00,,---,0.00,675.00,VWS V14.01,2013-03-04 18:50:00,
2013-03-04 13:55:00,43.1,19.8,29.79,West,281,0.0,0.0,39,0.00,,---,0.00,666.00,VWS V14.01,2013-03-04 18:55:00,
2013-03-04 14:00:00,43.7,20.4,29.79,WNW,299,0.0,0.0,39,0.00,,---,0.00,657.00,VWS V14.01,2013-03-04 19:00:00,
2013-03-04 14:05:00,44.0,21.2,29.79,NNW,342,0.0,0.0,40,0.00,,---,0.00,645.00,VWS V14.01,2013-03-04 19:05:00,
2013-03-04 14:10:00,43.2,19.9,29.79,West,276,0.0,0.0,39,0.00,,---,0.00,638.00,VWS V14.01,2013-03-04 19:10:00,
2013-03-04 14:15:00,42.8,20.2,29.79,West,269,0.0,0.0,40,0.00,,---,0.00,629.00,VWS V14.01,2013-03-04 19:15:00,
2013-03-04 14:20:00,43.4,20.1,29.79,WNW,293,0.0,0.0,39,0.00,,---,0.00,613.00,VWS V14.01,2013-03-04 19:20:00,
2013-03-04 14:25:00,43.1,20.4,29.79,SSW,196,0.0,0.0,40,0.00,,---,0.00,606.00,VWS V14.01,2013-03-04 19:25:00,
2013-03-04 14:30:00,43.1,19.8,29.79,NW,305,0.0,0.0,39,0.00,,---,0.00,596.00,VWS V14.01,2013-03-04 19:30:00,
2013-03-04 14:35:00,42.7,20.1,29.79,WNW,302,0.0,0.0,40,0.00,,---,0.00,585.00,VWS V14.01,2013-03-04 19:35:00,
2013-03-04 14:40:00,42.9,20.3,29.79,West,273,0.0,0.0,40,0.00,,---,0.00,568.00,VWS V14.01,2013-03-04 19:40:00,
2013-03-04 14:45:00,42.4,20.4,29.79,West,281,0.0,0.0,41,0.00,,---,0.00,555.00,VWS V14.01,2013-03-04 19:45:00,
2013-03-04 14:50:00,42.7,20.1,29.79,West,264,0.0,0.0,40,0.00,,---,0.00,548.00,VWS V14.01,2013-03-04 19:50:00,
2013-03-04 14:55:00,42.9,20.8,29.79,WSW,246,0.0,0.0,41,0.00,,---,0.00,533.00,VWS V14.01,2013-03-04 19:55:00,
2013-03-04 15:00:00,43.3,20.0,29.80,NW,315,0.0,0.0,39,0.00,,---,0.00,520.00,VWS V14.01,2013-03-04 20:00:00,
2013-03-04 15:05:00,43.7,20.4,29.80,WNW,293,0.0,0.0,39,0.00,,---,0.00,506.00,VWS V14.01,2013-03-04 20:05:00,
2013-03-04 15:10:00,43.1,20.4,29.79,NW,325,0.0,0.0,40,0.00,,---,0.00,494.00,VWS V14.01,2013-03-04 20:10:00,
2013-03-04 15:15:00,42.4,19.8,29.80,North,9,0.0,0.0,40,0.00,,---,0.00,482.00,VWS V14.01,2013-03-04 20:15:00,
2013-03-04 15:20:00,42.8,20.2,29.79,WSW,252,0.0,0.0,40,0.00,,---,0.00,469.00,VWS V14.01,2013-03-04 20:20:00,
2013-03-04 15:25:00,42.8,19.6,29.79,WNW,297,0.0,0.0,39,0.00,,---,0.00,452.00,VWS V14.01,2013-03-04 20:25:00,
2013-03-04 15:30:00,42.7,19.5,29.80,WSW,253,0.0,0.0,39,0.00,,---,0.00,436.00,VWS V14.01,2013-03-04 20:30:00,
2013-03-04 15:35:00,42.5,19.9,29.80,NW,315,0.0,0.0,40,0.00,,---,0.00,422.00,VWS V14.01,2013-03-04 20:35:00,
2013-03-04 15:40:00,42.6,19.4,29.80,NW,309,0.0,0.0,39,0.00,,---,0.00,403.00,VWS V14.01,2013-03-04 20:40:00,
2013-03-04 15:45:00,42.6,19.4,29.80,West,274,0.0,0.0,39,0.00,,---,0.00,387.00,VWS V14.01,2013-03-04 20:45:00,
2013-03-04 15:50:00,42.0,18.9,29.80,NW,313,0.0,0.0,39,0.00,,---,0.00,376.00,VWS V14.01,2013-03-04 20:50:00,
2013-03-04 15:55:00,41.7,18.6,29.80,WNW,294,0.0,0.0,39,0.00,,---,0.00,359.00,VWS V14.01,2013-03-04 20:55:00,
2013-03-04 16:00:00,41.8,18.7,29.80,NNW,335,0.0,0.0,39,0.00,,---,0.00,341.00,VWS V14.01,2013-03-04 21:00:00,
2013-03-04 16:05:00,41.9,19.4,29.80,WNW,291,0.0,0.0,40,0.00,,---,0.00,323.00,VWS V14.01,2013-03-04 21:05:00,
2013-03-04 16:10:00,42.0,19.5,29.80,NW,309,0.0,0.0,40,0.00,,---,0.00,306.00,VWS V14.01,2013-03-04 21:10:00,
2013-03-04 16:15:00,41.9,18.8,29.80,NNW,329,0.0,0.0,39,0.00,,---,0.00,206.00,VWS V14.01,2013-03-04 21:15:00,
2013-03-04 16:20:00,41.6,19.1,29.80,NNW,327,0.0,0.0,40,0.00,,---,0.00,116.00,VWS V14.01,2013-03-04 21:20:00,
2013-03-04 16:25:00,41.7,19.2,29.80,NNW,336,0.0,0.0,40,0.00,,---,0.00,113.00,VWS V14.01,2013-03-04 21:25:00,
2013-03-04 16:30:00,41.5,19.6,29.80,WNW,294,0.0,0.0,41,0.00,,---,0.00,114.00,VWS V14.01,2013-03-04 21:30:00,
2013-03-04 16:35:00,41.2,18.7,29.81,North,351,0.0,0.0,40,0.00,,---,0.00,100.00,VWS V14.01,2013-03-04 21:35:00,
2013-03-04 16:40:00,41.1,18.6,29.81,NNE,27,0.0,0.0,40,0.00,,---,0.00,93.00,VWS V14.01,2013-03-04 21:40:00,
2013-03-04 16:45:00,41.0,18.5,29.81,WNW,302,0.0,0.0,40,0.00,,---,0.00,118.00,VWS V14.01,2013-03-04 21:45:00,
2013-03-04 16:50:00,40.9,18.5,29.81,North,360,0.0,0.0,40,0.00,,---,0.00,60.00,VWS V14.01,2013-03-04 21:50:00,
2013-03-04 16:55:00,40.6,18.8,29.81,NW,325,0.0,0.0,41,0.00,,---,0.00,40.00,VWS V14.01,2013-03-04 21:55:00,
2013-03-04 17:00:00,40.2,18.4,29.81,WSW,257,0.0,0.0,41,0.00,,---,0.00,72.00,VWS V14.01,2013-03-04 22:00:00,
2013-03-04 17:05:00,40.2,18.4,29.82,West,265,0.0,0.0,41,0.00,,---,0.00,47.00,VWS V14.01,2013-03-04 22:05:00,
2013-03-04 17:10:00,40.4,18.6,29.82,WNW,303,0.0,0.0,41,0.00,,---,0.00,46.00,VWS V14.01,2013-03-04 22:10:00,
2013-03-04 17:15:00,40.0,18.8,29.82,WSW,239,0.0,0.0,42,0.00,,---,0.00,39.00,VWS V14.01,2013-03-04 22:15:00,
2013-03-04 17:20:00,39.5,18.3,29.82,NNW,331,0.0,0.0,42,0.00,,---,0.00,23.00,VWS V14.01,2013-03-04 22:20:00,
2013-03-04 17:25:00,39.3,18.1,29.82,NW,321,0.0,0.0,42,0.00,,---,0.00,21.00,VWS V14.01,2013-03-04 22:25:00,
2013-03-04 17:30:00,39.2,18.6,29.83,North,5,0.0,0.0,43,0.00,,---,0.00,19.00,VWS V14.01,2013-03-04 22:30:00,
2013-03-04 17:35:00,39.1,18.5,29.83,WSW,253,0.0,0.0,43,0.00,,---,0.00,14.00,VWS V14.01,2013-03-04 22:35:00,
2013-03-04 17:40:00,38.8,18.2,29.83,NNW,327,0.0,0.0,43,0.00,,---,0.00,11.00,VWS V14.01,2013-03-04 22:40:00,
2013-03-04 17:45:00,38.8,18.2,29.83,NW,311,0.0,0.0,43,0.00,,---,0.00,9.00,VWS V14.01,2013-03-04 22:45:00,
2013-03-04 17:50:00,38.6,18.6,29.84,NW,320,0.0,0.0,44,0.00,,---,0.00,5.00,VWS V14.01,2013-03-04 22:50:00,
2013-03-04 17:55:00,38.6,19.1,29.84,NW,319,0.0,0.0,45,0.00,,---,0.00,0.00,VWS V14.01,2013-03-04 22:55:00,
2013-03-04 18:00:00,38.7,18.7,29.84,WNW,302,0.0,0.0,44,0.00,,---,0.00,0.00,VWS V14.01,2013-03-04 23:00:00,
2013-03-04 18:05:00,38.6,18.6,29.84,NW,325,0.0,0.0,44,0.00,,---,0.00,0.00,VWS V14.01,2013-03-04 23:05:00,
2013-03-04 18:10:00,38.1,18.1,29.84,NW,317,0.0,0.0,44,0.00,,---,0.00,0.00,VWS V14.01,2013-03-04 23:10:00,
2013-03-04 18:15:00,38.0,18.6,29.85,WNW,288,0.0,0.0,45,0.00,,---,0.00,0.00,VWS V14.01,2013-03-04 23:15:00,
2013-03-04 18:20:00,37.9,18.5,29.85,WNW,299,0.0,0.0,45,0.00,,---,0.00,0.00,VWS V14.01,2013-03-04 23:20:00,
2013-03-04 18:25:00,37.5,18.1,29.85,WNW,301,0.0,0.0,45,0.00,,---,0.00,0.00,VWS V14.01,2013-03-04 23:25:00,
2013-03-04 18:30:00,37.3,17.9,29.85,NNW,333,0.0,0.0,45,0.00,,---,0.00,0.00,VWS V14.01,2013-03-04 23:30:00,
2013-03-04 18:35:00,37.3,18.4,29.86,West,269,0.0,0.0,46,0.00,,---,0.00,0.00,VWS V14.01,2013-03-04 23:35:00,
2013-03-04 18:40:00,37.0,18.2,29.86,NNE,12,0.0,0.0,46,0.00,,---,0.00,0.00,VWS V14.01,2013-03-04 23:40:00,
2013-03-04 18:45:00,36.8,18.0,29.86,WNW,289,0.0,0.0,46,0.00,,---,0.00,0.00,VWS V14.01,2013-03-04 23:45:00,
2013-03-04 18:50:00,36.7,18.4,29.86,NW,304,0.0,0.0,47,0.00,,---,0.00,0.00,VWS V14.01,2013-03-04 23:50:00,
2013-03-04 18:55:00,36.6,18.3,29.87,West,279,0.0,0.0,47,0.00,,---,0.00,0.00,VWS V14.01,2013-03-04 23:55:00,
2013-03-04 19:00:00,36.7,18.4,29.87,WNW,286,0.0,0.0,47,0.00,,---,0.00,0.00,VWS V14.01,2013-03-05 00:00:00,
2013-03-04 19:05:00,36.6,18.3,29.87,North,355,0.0,0.0,47,0.00,,---,0.00,0.00,VWS V14.01,2013-03-05 00:05:00,
2013-03-04 19:10:00,36.3,18.0,29.87,WSW,258,0.0,0.0,47,0.00,,---,0.00,0.00,VWS V14.01,2013-03-05 00:10:00,
2013-03-04 19:15:00,36.2,18.4,29.87,West,266,0.0,0.0,48,0.00,,---,0.00,0.00,VWS V14.01,2013-03-05 00:15:00,
2013-03-04 19:20:00,36.1,18.3,29.87,WNW,296,0.0,0.0,48,0.00,,---,0.00,0.00,VWS V14.01,2013-03-05 00:20:00,
2013-03-04 19:25:00,35.9,18.1,29.87,WNW,291,0.0,0.0,48,0.00,,---,0.00,0.00,VWS V14.01,2013-03-05 00:25:00,
2013-03-04 19:30:00,35.9,18.1,29.88,West,278,0.0,0.0,48,0.00,,---,0.00,0.00,VWS V14.01,2013-03-05 00:30:00,
2013-03-04 19:35:00,35.8,18.5,29.88,WNW,296,0.0,0.0,49,0.00,,---,0.00,0.00,VWS V14.01,2013-03-05 00:35:00,
2013-03-04 19:40:00,35.6,17.9,29.88,West,259,0.0,0.0,48,0.00,,---,0.00,0.00,VWS V14.01,2013-03-05 00:40:00,
2013-03-04 19:45:00,35.6,18.3,29.88,WNW,295,0.0,0.0,49,0.00,,---,0.00,0.00,VWS V14.01,2013-03-05 00:45:00,
2013-03-04 19:50:00,35.7,18.4,29.88,WNW,289,0.0,0.0,49,0.00,,---,0.00,0.00,VWS V14.01,2013-03-05 00:50:00,
2013-03-04 19:55:00,35.5,18.2,29.88,West,275,0.0,0.0,49,0.00,,---,0.00,0.00,VWS V14.01,2013-03-05 00:55:00,
2013-03-04 20:00:00,35.5,18.2,29.88,West,278,0.0,0.0,49,0.00,,---,0.00,0.00,VWS V14.01,2013-03-05 01:00:00,
2013-03-04 20:05:00,35.4,18.1,29.88,NW,326,0.0,0.0,49,0.00,,---,0.00,0.00,VWS V14.01,2013-03-05 01:05:00,
2013-03-04 20:10:00,35.3,18.5,29.88,West,265,0.0,0.0,50,0.00,,---,0.00,0.00,VWS V14.01,2013-03-05 01:10:00,
2013-03-04 20:15:00,35.2,18.4,29.89,WNW,295,0.0,0.0,50,0.00,,---,0.00,0.00,VWS V14.01,2013-03-05 01:15:00,
2013-03-04 20:20:00,35.3,18.5,29.89,WNW,298,0.0,0.0,50,0.00,,---,0.00,0.00,VWS V14.01,2013-03-05 01:20:00,
2013-03-04 20:25:00,35.2,18.9,29.89,West,279,0.0,0.0,51,0.00,,---,0.00,0.00,VWS V14.01,2013-03-05 01:25:00,
2013-03-04 20:30:00,35.2,18.4,29.89,WNW,288,0.0,0.0,50,0.00,,---,0.00,0.00,VWS V14.01,2013-03-05 01:30:00,
2013-03-04 20:35:00,35.3,19.0,29.89,West,271,0.0,0.0,51,0.00,,---,0.00,0.00,VWS V14.01,2013-03-05 01:35:00,
2013-03-04 20:40:00,35.3,19.0,29.89,WNW,296,0.0,0.0,51,0.00,,---,0.00,0.00,VWS V14.01,2013-03-05 01:40:00,
2013-03-04 20:45:00,35.2,18.9,29.90,NNW,327,0.0,0.0,51,0.00,,---,0.00,0.00,VWS V14.01,2013-03-05 01:45:00,
2013-03-04 20:50:00,35.2,18.9,29.89,WNW,299,0.0,0.0,51,0.00,,---,0.00,0.00,VWS V14.01,2013-03-05 01:50:00,
2013-03-04 20:55:00,34.9,19.1,29.90,NW,323,0.0,0.0,52,0.00,,---,0.00,0.00,VWS V14.01,2013-03-05 01:55:00,
2013-03-04 21:00:00,34.9,19.1,29.90,West,270,0.0,0.0,52,0.00,,---,0.00,0.00,VWS V14.01,2013-03-05 02:00:00,
2013-03-04 21:05:00,35.0,19.2,29.90,WNW,286,0.0,0.0,52,0.00,,---,0.00,0.00,VWS V14.01,2013-03-05 02:05:00,
2013-03-04 21:10:00,34.9,19.1,29.90,NW,311,0.0,0.0,52,0.00,,---,0.00,0.00,VWS V14.01,2013-03-05 02:10:00,
2013-03-04 21:15:00,34.7,19.3,29.90,West,275,0.0,0.0,53,0.00,,---,0.00,0.00,VWS V14.01,2013-03-05 02:15:00,
2013-03-04 21:20:00,34.7,19.3,29.90,WNW,286,0.0,0.0,53,0.00,,---,0.00,0.00,VWS V14.01,2013-03-05 02:20:00,
2013-03-04 21:25:00,34.6,19.2,29.90,WNW,284,0.0,0.0,53,0.00,,---,0.00,0.00,VWS V14.01,2013-03-05 02:25:00,
2013-03-04 21:30:00,34.7,19.3,29.90,WNW,284,0.0,0.0,53,0.00,,---,0.00,0.00,VWS V14.01,2013-03-05 02:30:00,
2013-03-04 21:35:00,34.8,19.4,29.90,North,351,0.0,0.0,53,0.00,,---,0.00,0.00,VWS V14.01,2013-03-05 02:35:00,
2013-03-04 21:40:00,34.6,19.2,29.90,North,10,0.0,0.0,53,0.00,,---,0.00,0.00,VWS V14.01,2013-03-05 02:40:00,
2013-03-04 21:45:00,34.4,19.5,29.91,NW,306,0.0,0.0,54,0.00,,---,0.00,0.00,VWS V14.01,2013-03-05 02:45:00,
2013-03-04 21:50:00,34.6,19.7,29.91,NW,310,0.0,0.0,54,0.00,,---,0.00,0.00,VWS V14.01,2013-03-05 02:50:00,
2013-03-04 21:55:00,34.6,19.7,29.91,NE,49,0.0,0.0,54,0.00,,---,0.00,0.00,VWS V14.01,2013-03-05 02:55:00,
2013-03-04 22:00:00,34.6,19.7,29.91,NW,317,0.0,0.0,54,0.00,,---,0.00,0.00,VWS V14.01,2013-03-05 03:00:00,
2013-03-04 22:05:00,34.5,19.6,29.91,NW,313,0.0,0.0,54,0.00,,---,0.00,0.00,VWS V14.01,2013-03-05 03:05:00,
2013-03-04 22:10:00,34.4,19.5,29.91,WNW,285,0.0,0.0,54,0.00,,---,0.00,0.00,VWS V14.01,2013-03-05 03:10:00,
2013-03-04 22:15:00,34.4,19.5,29.91,WNW,301,0.0,0.0,54,0.00,,---,0.00,0.00,VWS V14.01,2013-03-05 03:15:00,
2013-03-04 22:20:00,34.3,19.4,29.92,NNW,347,0.0,0.0,54,0.00,,---,0.00,0.00,VWS V14.01,2013-03-05 03:20:00,
2013-03-04 22:25:00,34.2,19.3,29.92,NNW,335,0.0,0.0,54,0.00,,---,0.00,0.00,VWS V14.01,2013-03-05 03:25:00,
2013-03-04 22:30:00,34.3,19.8,29.92,NW,311,0.0,0.0,55,0.00,,---,0.00,0.00,VWS V14.01,2013-03-05 03:30:00,
2013-03-04 22:35:00,34.3,19.8,29.92,North,5,0.0,0.0,55,0.00,,---,0.00,0.00,VWS V14.01,2013-03-05 03:35:00,
2013-03-04 22:40:00,34.1,19.6,29.92,WNW,286,0.0,0.0,55,0.00,,---,0.00,0.00,VWS V14.01,2013-03-05 03:40:00,
2013-03-04 22:45:00,34.0,19.5,29.92,WSW,246,0.0,0.0,55,0.00,,---,0.00,0.00,VWS V14.01,2013-03-05 03:45:00,
2013-03-04 22:50:00,34.1,19.6,29.93,NW,313,0.0,0.0,55,0.00,,---,0.00,0.00,VWS V14.01,2013-03-05 03:50:00,
2013-03-04 22:55:00,34.2,19.7,29.92,NNW,336,0.0,0.0,55,0.00,,---,0.00,0.00,VWS V14.01,2013-03-05 03:55:00,
2013-03-04 23:00:00,34.2,19.7,29.93,NNE,27,0.0,0.0,55,0.00,,---,0.00,0.00,VWS V14.01,2013-03-05 04:00:00,
2013-03-04 23:05:00,34.1,19.6,29.93,NW,309,0.0,0.0,55,0.00,,---,0.00,0.00,VWS V14.01,2013-03-05 04:05:00,
2013-03-04 23:10:00,34.2,19.7,29.93,NNW,338,0.0,0.0,55,0.00,,---,0.00,0.00,VWS V14.01,2013-03-05 04:10:00,
2013-03-04 23:15:00,33.9,19.5,29.93,NNW,348,0.0,0.0,55,0.00,,---,0.00,0.00,VWS V14.01,2013-03-05 04:15:00,
2013-03-04 23:20:00,33.8,19.8,29.93,North,355,0.0,0.0,56,0.00,,---,0.00,0.00,VWS V14.01,2013-03-05 04:20:00,
2013-03-04 23:25:00,33.6,19.6,29.92,SSE,157,0.0,0.0,56,0.00,,---,0.00,0.00,VWS V14.01,2013-03-05 04:25:00,
2013-03-04 23:30:00,33.4,19.4,29.93,NNW,333,0.0,0.0,56,0.00,,---,0.00,0.00,VWS V14.01,2013-03-05 04:30:00,
2013-03-04 23:35:00,33.3,19.3,29.93,WNW,288,0.0,0.0,56,0.00,,---,0.00,0.00,VWS V14.01,2013-03-05 04:35:00,
2013-03-04 23:40:00,33.2,19.6,29.93,NNW,346,0.0,0.0,57,0.00,,---,0.00,0.00,VWS V14.01,2013-03-05 04:40:00,
2013-03-04 23:45:00,33.1,19.5,29.93,NNW,333,0.0,0.0,57,0.00,,---,0.00,0.00,VWS V14.01,2013-03-05 04:45:00,
2013-03-04 23:50:00,33.0,19.4,29.93,NW,315,0.0,0.0,57,0.00,,---,0.00,0.00,VWS V14.01,2013-03-05 04:50:00,
2013-03-04 23:55:00,33.0,19.4,29.93,SSE,164,0.0,0.0,57,0.00,,---,0.00,0.00,VWS V14.01,2013-03-05 04:55:00,